STARLINK-30885, 58361

Orbit data source: Space-Track

STARLINK-30885, 58361 is a payload satellite owned by SpaceX/Seattle (US) in LEO that was launched on Sat, 18 Nov 2023 UTC via an FALCON 9 launch vehicle from the Air Force Eastern Test Range (AFETR). Payload-class satellites include a variety of spacecraft equipped with specific instruments for various scientific and technological missions. These include communications satellites like Starlink; space stations such as the ISS; scientific satellites like the Hubble; Earth observation satellites from companies like Planet Labs, Umbra, and HawkEye 360; GPS; miniature CubeSats for education and research; and military/defense satellites.

Loading next visibility...
Identifier
58361, 2023-177L
Orbit
LEO
Country
Flag of USUS
Related business
Manufacturer
SpaceX/Seattle
Mission
Operational Commercial Communications
Bus & Motor
STARLINK V2M, Unknown motor
Mass
730 kg wet, ~700 kg dry
Launch date (UTC)
2023-11-18 (3 years ago)
Launch vehicle
FALCON 9
Launch site
Air Force Eastern Test Range (AFETR)
Object type
Payload
Rocket body
Debris
Shape & HBR
Box + 2 Pan, 17.7 m
Radar Cross Section
33.884 m², Large (>1 m²)

Expand to show TLE details & history
Last TLE update: 2 days ago

TLE from 2 days ago
0 STARLINK-30885
1 58361U 23177L   26171.31358213 -.00000074  00000-0  68461-5 0  9998
2 58361  43.0007 130.9375 0001352 275.3495  84.7202 15.27575577143937
Epoch: 2026-06-20T07:31Z
TLE epoch observation values (Epoch: 2026-06-20T07:31:33.496Z)
Latitude
-0.00002°
Longitude
109.51792°
Altitude
482.753 km
Speed
7.626 km/s
True Right ascension
08h 43m 44s
True Declination
0° 00' 00"
Sunlit
Object was in daylight at epoch
Visualization orbit readout
Latitude
Unknown
Longitude
Unknown
Altitude
Unknown
Speed
Unknown
Apparent Right ascension
Unknown
Apparent Declination
Unknown
Sunlit
N/A
Visualization observer readout
Local Sidereal Time
00:36:31
Azimuth
Unknown
Elevation
Unknown
Doppler factor
Unknown
Orbital elements
Apogee altitude
485.935 km
Perigee altitude
484.079 km
Semi-major axis
6,863.144 km
Eccentricity
0.00014
Inclination
43.0007°
RAAN
130.9375°
Arg. of periapsis
275.3495°
True anomaly
84.73563°
Mean anomaly
84.7202°
Eccentric anomaly
84.72791°
Mean motion
3.81732 °/min
Orbital period
94.31 mins
BSTAR
0.0000068461
Loading maneuver chart data...
Computing Atmospheric mass density...
Loading historical data...
Loading historical data...
Loading historical data...
Loading historical data...
Loading historical data...
Loading historical data...
Loading historical data...

Documentation

Showing up to 5 results
|